User: anonymous   Login
Location: Newark
(41.6500°N, 71.4833°W)
Time: 20:43:30
(UTC+00:00)
Language:

Transit 4A - Orbit

View from above orbital plane
View from above orbital plane
View from above satellite
View from above satellite

Ground track
Ground track

The orbit data is extracted from the following two-line orbital elements,

1   116U 61015A   20029.48772426 -.00000075  00000-0  92472-6 0  9997
2   116  66.8083 190.3690 0069360 108.4983 252.3650 13.91764834972834
Epoch (UTC): 29 January 2020 11:42:19
Eccentricity: 0.0069360
inclination: 66.8083°
perigee height: 872 km
apogee height: 973 km
right ascension of ascending node: 190.3690°
argument of perigee: 108.4983°
revolutions per day: 13.91764834
mean anomaly at epoch: 252.3650°
orbit number at epoch: 97283

The dashed part of the orbit path shows where the satellite is in the earth's shadow,  

DLR